Temperature
18 18 18 18 18 18 18 18 18 18 18 18 18 18 18 18 18 18 18 18 18 18 17 17 17 17 17 17 17 17 17 17 17 17 16 16 16 16 16 16 16 16 16
18 18 18 18 18 18 18 18 18 18 18 18 18 18 18 18 18 18 18 18 18 18 17 17 17 17 17 17 17 17 17 17 17 17 16 16 16 16 16 16 16 16 16
18 18 18 18 18 18 18 18 18 18 18 18 18 18 18 18 18 18 18 18 18 18 17 17 17 17 17 17 17 17 17 17 17 16 16 16 16 16 16 16 16 16 16
18 18 18 18 18 18 18 18 18 18 18 18 18 18 18 18 18 18 18 18 17 17 17 17 17 17 17 17 17 17 17 17 17 16 16 16 16 16 16 16 16 16 16
18 18 18 18 18 18 18 18 18 18 18 18 18 18 18 18 18 18 18 18 17 17 17 17 17 17 17 17 17 17 17 17 17 16 16 16 16 16 16 16 16 16 16
18 18 18 18 18 18 18 18 18 18 18 18 18 18 18 18 18 18 18 18 17 17 17 17 17 17 17 17 17 17 17 17 17 17 16 16 16 16 16 16 16 16 16
18 18 18 18 18 18 18 18 18 18 17 18 18 18 18 18 18 18 17 17 17 17 17 17 17 17 17 17 17 17 17 17 17 17 16 16 16 16 16 16 16 16 16
18 18 18 18 18 18 18 18 18 18 17 17 17 17 17 17 18 17 17 17 18 17 17 17 17 17 17 17 17 17 17 17 17 17 16 16 16 16 16 16 16 16 16
18 18 18 18 18 18 18 18 18 18 17 17 17 17 17 17 17 17 17 17 17 17 17 17 17 17 17 17 17 17 17 17 17 16 16 16 16 16 16 16 16 16 16
18 18 18 18 18 18 18 18 18 18 17 17 17 17 17 17 17 17 17 17 17 17 17 17 17 17 17 17 17 17 17 17 17 16 16 16 16 16 16 16 16 16 16
18 18 18 18 18 18 18 18 18 18 17 17 17 17 17 17 17 16 16 17 17 17 17 17 17 17 17 17 17 17 17 17 17 17 16 16 16 16 16 16 16 16 16
18 18 18 18 18 18 18 18 18 17 17 17 17 17 17 17 17 17 16 16 17 17 17 17 17 17 16 16 16 16 16 16 16 16 16 16 16 16 16 16 16 16 15
18 18 18 18 18 18 18 18 18 17 17 17 17 17 17 17 17 17 16 16 16 16 17 17 17 16 16 16 16 16 16 16 16 16 16 16 16 16 16 16 15 15 15
18 18 18 18 18 18 18 18 18 17 17 17 17 17 17 17 17 17 16 16 16 16 16 16 16 16 16 16 16 16 16 16 16 16 16 16 16 16 15 15 15 15 15
18 18 18 18 18 18 18 18 17 17 17 17 17 17 17 17 17 17 16 16 16 15 15 16 16 16 16 16 16 16 16 16 16 16 16 16 15 15 15 15 15 15 15
18 18 18 18 18 18 18 17 17 17 17 17 17 17 17 17 17 16 16 16 16 16 15 15 16 16 16 16 16 16 16 16 16 16 15 15 15 15 15 15 15 15 15
19 18 18 18 18 18 18 17 17 17 17 17 17 17 17 17 17 16 16 16 16 16 15 15 15 15 15 15 15 15 15 15 15 15 15 15 15 15 15 15 15 14 14
18 18 18 18 18 18 18 17 17 17 17 17 17 17 17 16 16 16 16 16 16 16 15 15 15 15 15 15 15 15 15 15 15 15 15 15 15 14 14 14 14 14 14
18 18 18 18 18 18 18 17 17 17 17 17 17 16 16 16 16 16 16 16 16 15 15 15 15 15 15 15 15 15 15 15 14 14 14 14 14 14 14 14 14 14 14
18 18 18 18 17 17 17 17 17 17 17 17 16 16 16 16 16 16 16 16 15 15 15 15 14 14 14 14 14 14 14 14 14 14 14 14 14 14 14 14 14 14 14
18 18 18 17 17 17 17 17 17 17 17 16 16 16 16 16 16 16 15 15 15 15 15 14 14 14 14 14 14 14 14 14 14 14 14 13 13 13 13 13 13 13 13
18 17 17 17 17 17 17 17 17 16 16 16 16 16 16 16 15 15 15 15 15 15 14 14 14 14 14 14 14 13 13 13 13 13 13 13 13 13 13 13 13 13 13
17 17 17 17 17 17 16 16 16 16 16 16 16 15 15 15 15 15 15 15 14 14 14 14 14 14 14 14 13 13 13 13 13 13 13 13 13 13 13 13 12 12 12
17 17 17 17 16 16 16 16 16 16 16 16 15 15 15 15 15 15 14 14 14 14 14 14 14 13 13 13 13 13 13 13 13 12 12 12 12 12 12 12 12 12 12
17 16 16 16 16 16 16 16 15 15 15 15 15 15 14 14 14 14 14 14 14 14 13 13 13 13 13 13 13 12 12 12 12 12 12 11 11 12 12 12 12 12 12
16 16 16 16 16 15 15 15 15 15 15 14 14 14 14 14 14 14 13 13 13 13 13 13 13 13 13 12 12 12 12 12 12 11 11 11 11 11 11 11 11 11 11
Wind_Speed
2 1 1 0 0 0 0 0 1 1 1 1 1 3 3 4 5 5 6 7 8 8 8 7 7 7 8 8 8 9 9 9 8 9 9 8 8 7 7 7 7 8 8
3 2 1 1 1 1 1 1 0 0 1 0 0 2 3 3 4 5 5 6 7 8 8 8 8 8 8 8 9 9 10 10 10 9 9 9 9 8 8 8 8 8 8
4 3 2 1 2 1 1 1 1 1 1 1 1 0 1 2 3 4 4 4 5 7 8 9 10 9 9 9 9 9 9 10 10 10 10 10 10 9 9 9 8 8 9
5 3 2 1 1 0 0 1 1 1 1 1 1 1 0 1 2 3 3 3 4 4 6 8 10 10 10 10 9 9 10 11 11 11 11 11 10 10 10 9 9 9 9
5 4 2 2 1 1 1 0 1 1 1 1 1 1 1 1 1 2 2 3 4 4 5 6 7 8 9 9 9 9 10 10 12 11 11 12 12 11 11 11 10 10 10
5 5 3 2 2 1 1 1 1 1 1 1 1 2 1 1 0 1 2 2 3 3 4 4 4 5 7 8 9 9 10 11 11 12 12 12 12 13 13 12 12 11 11
5 4 2 2 2 2 2 2 2 2 1 1 2 2 2 2 1 1 1 1 1 2 2 3 3 4 4 6 7 9 10 11 11 11 12 12 13 13 13 13 13 13 13
5 5 4 3 3 2 2 2 2 2 1 1 1 1 2 3 3 2 1 1 1 1 2 3 3 3 4 4 6 8 9 9 10 11 11 11 12 13 14 13 14 14 13
5 5 5 4 4 4 3 3 3 3 2 1 1 2 1 1 2 2 2 1 1 1 2 2 3 4 5 5 6 7 8 8 9 10 10 11 12 13 14 14 14 14 14
4 5 5 5 4 4 3 3 3 3 3 2 1 1 1 2 1 2 2 1 2 2 2 2 3 3 4 5 6 7 8 8 8 8 9 10 11 12 12 13 14 13 13
3 4 5 4 4 4 4 3 3 3 3 3 2 2 1 1 1 2 3 3 2 2 2 2 2 3 4 5 5 7 7 7 7 8 9 9 9 9 10 11 12 12 13
2 3 4 4 4 4 4 4 3 4 3 3 3 2 2 2 2 2 3 3 3 3 3 2 2 3 3 4 5 6 6 6 6 6 6 7 7 7 9 10 10 11 12
3 4 4 3 3 4 4 3 3 3 4 3 4 3 3 3 3 3 2 2 2 3 2 2 2 2 3 3 4 6 5 5 5 5 6 6 7 7 8 8 9 9 10
5 4 4 4 4 4 4 3 3 3 3 4 4 4 3 3 3 4 3 3 2 2 2 3 2 2 2 3 4 5 4 5 5 5 6 6 6 6 6 7 7 7 7
5 5 5 5 5 4 4 4 3 4 3 4 4 4 4 3 3 4 4 4 3 3 4 3 2 1 2 3 4 3 4 5 5 5 6 6 6 6 6 5 6 6 6
5 5 5 5 5 5 5 5 4 4 4 4 4 4 4 4 4 4 4 3 3 3 3 3 2 3 2 3 4 3 4 5 5 5 5 5 4 4 4 4 5 5 5
6 7 7 6 6 6 6 5 5 5 5 5 4 5 5 4 3 3 3 3 3 3 4 4 2 2 2 3 3 3 3 3 3 4 4 3 3 3 3 3 4 4 4
7 7 7 7 7 6 6 6 6 6 6 6 6 5 5 3 4 3 3 4 4 4 4 4 3 2 3 3 3 3 3 2 2 3 3 2 3 3 4 4 4 4 4
7 7 7 7 7 6 6 7 7 6 6 6 6 6 5 4 4 4 4 4 3 3 3 4 4 3 3 2 2 2 3 2 2 2 2 2 2 3 3 4 4 5 5
8 7 7 7 7 7 6 6 6 6 5 5 5 5 5 5 6 5 4 4 3 3 3 3 3 3 3 2 2 2 2 2 2 2 1 1 1 1 2 3 3 4 4
8 7 7 6 6 6 6 6 6 6 5 4 4 4 5 5 6 6 5 4 4 3 3 3 3 3 3 2 3 2 3 2 2 2 1 1 1 1 1 1 2 2 3
6 6 7 7 7 6 6 7 6 5 5 5 4 4 3 4 5 5 6 6 6 5 5 4 4 4 5 4 3 3 2 1 2 1 1 2 1 1 1 1 1 2 2
5 5 6 6 6 6 7 7 8 6 5 5 5 4 3 2 2 3 2 2 3 4 6 5 5 6 5 5 4 3 3 3 3 2 1 2 1 2 2 2 2 2 2
4 4 4 5 5 4 6 6 7 5 4 4 4 4 3 3 2 2 2 1 1 2 3 3 4 5 5 4 4 4 3 2 2 1 2 2 1 2 2 2 2 2 3
3 4 4 4 4 4 5 6 5 3 3 3 3 3 3 3 3 3 3 2 1 1 1 1 2 2 2 3 4 2 2 1 1 1 1 1 1 1 2 2 3 3 3
3 3 3 3 4 4 5 6 6 4 3 2 1 2 3 3 3 4 4 3 2 2 1 1 1 2 1 2 3 3 4 3 1 1 1 1 1 1 1 1 2 2 2
Wind_Direction
155 144 129 125 251 230 189 325 346 337 322 313 233 203 203 202 202 207 216 222 221 216 215 214 213 212 213 213 209 210 209 207 210 209 207 207 207 206 208 209 208 210 209
176 168 158 182 243 253 251 267 309 338 334 319 252 204 205 201 202 211 215 221 224 222 220 220 221 223 225 219 215 217 216 215 215 216 213 212 213 214 218 219 218 218 215
184 176 162 192 245 248 263 347 25 51 30 32 28 189 194 200 205 209 206 216 231 230 226 226 225 227 229 227 225 223 220 219 218 218 217 218 219 219 221 222 222 222 221
187 170 164 205 236 196 106 86 59 74 56 37 11 337 346 216 218 207 206 219 233 240 241 236 232 232 232 234 233 230 228 224 221 221 222 223 221 221 220 221 221 225 227
188 178 179 202 193 119 109 141 88 111 99 37 359 356 334 277 239 218 218 232 237 240 243 242 241 239 238 239 240 239 239 238 232 228 229 228 226 225 223 224 223 226 228
194 185 185 187 156 119 102 97 87 82 91 74 38 21 355 331 240 238 241 237 239 241 249 253 253 254 249 247 247 245 247 246 241 235 236 234 232 228 226 224 226 228 230
197 187 180 160 149 153 163 143 114 92 67 76 66 16 6 20 19 303 251 230 235 235 246 251 249 250 258 256 253 252 255 252 246 243 240 238 236 234 229 226 228 230 231
198 193 174 169 163 160 157 153 140 132 119 95 104 70 7 355 360 5 356 203 223 228 248 259 248 240 250 255 258 257 257 258 255 251 247 242 239 236 230 228 229 230 231
200 195 184 174 172 175 185 185 168 164 167 151 124 137 148 245 322 336 343 330 315 286 281 272 259 251 248 253 260 263 263 263 262 257 253 250 247 241 234 230 230 230 231
200 201 193 185 182 181 187 197 180 172 162 183 185 189 184 169 182 309 325 325 320 304 293 291 286 273 263 261 264 268 269 266 265 262 260 257 255 248 241 238 236 234 234
216 211 202 194 189 190 197 198 177 179 183 189 189 178 171 166 191 210 276 305 322 301 279 274 279 283 277 272 274 279 276 269 266 264 262 263 262 252 244 242 242 238 237
229 218 205 198 196 194 198 199 192 192 200 199 195 183 178 190 198 197 234 273 294 301 296 278 271 276 281 279 281 285 279 274 272 269 264 260 259 256 252 249 247 244 242
227 224 215 203 203 203 200 196 193 204 203 198 205 210 206 215 193 183 200 246 275 295 300 290 265 272 281 280 288 291 286 283 273 271 268 262 256 255 255 254 251 252 249
221 215 206 208 209 204 200 191 201 211 202 209 220 215 217 225 207 197 192 195 259 292 290 281 292 272 280 280 293 296 302 297 283 274 271 264 259 257 256 256 250 251 255
218 208 207 209 212 206 197 189 208 219 211 220 225 219 226 232 221 217 207 197 198 255 278 271 276 299 280 277 284 290 292 298 283 274 273 267 262 258 258 256 252 252 251
214 205 209 211 214 213 206 200 209 217 216 228 225 221 229 232 220 215 212 213 211 219 252 257 259 281 291 299 297 287 294 295 287 276 268 266 266 260 253 255 252 249 241
209 213 214 211 213 215 212 205 215 214 218 227 228 224 232 225 219 219 212 211 215 211 241 269 266 278 279 291 311 311 300 291 291 275 266 260 270 272 259 246 242 241 242
215 214 213 213 216 216 210 209 219 219 217 222 224 220 229 222 220 221 217 219 220 215 222 255 272 270 265 278 287 291 300 291 284 276 269 257 256 263 260 244 238 239 240
214 212 209 215 217 215 211 213 215 217 217 219 217 216 223 215 227 227 220 221 223 220 217 233 262 261 262 273 284 290 295 301 301 302 281 256 249 263 264 244 239 240 240
212 211 211 215 215 213 211 209 208 212 215 218 217 218 220 219 225 224 222 220 213 211 210 225 251 264 264 269 255 263 285 289 301 314 324 302 277 276 265 249 243 244 248
216 214 211 215 211 209 211 205 202 204 206 213 219 225 229 223 223 222 221 214 207 212 216 232 247 260 261 257 255 251 262 285 292 265 279 295 317 339 323 279 254 245 249
214 209 208 208 211 215 204 197 197 203 201 205 216 233 237 226 228 224 219 211 203 208 215 223 235 243 250 247 246 244 238 251 273 253 246 282 251 268 306 308 300 272 266
213 208 207 202 208 212 199 195 197 199 203 207 211 220 232 231 220 219 212 215 222 222 213 212 226 237 241 234 224 233 239 241 248 251 221 259 274 271 291 300 301 295 276
203 204 206 203 204 213 195 197 199 195 194 200 205 209 214 226 223 190 189 216 253 266 244 222 222 236 240 228 215 219 221 224 257 248 208 233 262 273 292 295 284 271 270
197 201 197 190 194 210 192 187 182 190 196 209 216 213 209 216 212 168 166 193 234 284 286 199 206 226 215 186 165 152 159 176 251 270 210 223 252 291 290 283 299 294 277
200 192 190 187 189 200 186 176 173 183 192 208 215 220 212 209 200 174 175 182 209 251 260 356 31 32 71 100 142 169 174 177 211 252 209 208 214 261 278 285 308 311 308
Height
1549 1550 1552 1553 1554 1555 1556 1557 1558 1559 1559 1560 1561 1561 1562 1563 1564 1564 1565 1566 1566 1567 1567 1567 1567 1568 1568 1568 1569 1569 1570 1571 1571 1572 1573 1573 1574 1574 1575 1576 1577 1578 1579
1549 1551 1552 1553 1554 1556 1557 1557 1558 1559 1559 1560 1560 1561 1561 1562 1563 1564 1564 1565 1565 1566 1566 1567 1567 1567 1567 1568 1568 1568 1569 1570 1570 1571 1571 1572 1572 1573 1574 1574 1575 1576 1577
1550 1551 1553 1554 1555 1556 1557 1557 1558 1558 1559 1559 1560 1560 1561 1561 1562 1563 1563 1564 1564 1565 1565 1565 1566 1566 1566 1566 1567 1567 1568 1568 1568 1569 1569 1570 1571 1571 1572 1572 1573 1574 1575
1550 1552 1553 1554 1555 1556 1557 1557 1558 1558 1558 1559 1559 1560 1560 1560 1561 1561 1562 1562 1563 1563 1564 1564 1564 1565 1565 1565 1565 1565 1566 1566 1566 1567 1567 1568 1569 1569 1570 1570 1571 1572 1573
1551 1552 1553 1554 1555 1556 1557 1557 1557 1558 1558 1558 1558 1559 1559 1559 1559 1559 1560 1561 1562 1562 1563 1563 1563 1563 1564 1564 1564 1564 1564 1564 1564 1565 1565 1566 1566 1567 1567 1568 1569 1569 1570
1551 1552 1553 1554 1555 1556 1556 1557 1557 1557 1558 1557 1558 1558 1558 1558 1558 1558 1559 1559 1560 1561 1561 1562 1562 1562 1562 1562 1562 1562 1562 1562 1562 1562 1563 1563 1564 1564 1565 1565 1566 1567 1568
1551 1552 1553 1554 1555 1556 1556 1556 1557 1557 1557 1557 1557 1557 1557 1557 1557 1557 1558 1558 1559 1560 1560 1560 1560 1560 1560 1560 1560 1560 1560 1560 1560 1560 1560 1560 1560 1561 1561 1562 1563 1564 1565
1551 1552 1553 1554 1554 1555 1555 1556 1556 1556 1556 1557 1557 1557 1556 1558 1557 1557 1557 1558 1558 1558 1558 1559 1558 1558 1558 1558 1558 1557 1557 1557 1557 1557 1557 1557 1557 1558 1558 1559 1559 1560 1561
1550 1551 1552 1553 1553 1554 1554 1555 1555 1555 1555 1556 1556 1557 1557 1556 1556 1556 1556 1557 1557 1557 1557 1557 1556 1556 1556 1555 1555 1555 1555 1555 1554 1554 1554 1554 1554 1554 1555 1555 1556 1557 1558
1549 1550 1550 1551 1552 1552 1553 1554 1554 1554 1555 1555 1555 1555 1556 1556 1556 1555 1556 1555 1555 1555 1555 1555 1554 1554 1554 1553 1553 1552 1552 1552 1552 1552 1551 1551 1551 1551 1551 1552 1552 1553 1554
1547 1548 1549 1549 1550 1551 1551 1552 1553 1553 1553 1553 1554 1554 1554 1555 1554 1554 1553 1553 1554 1553 1553 1553 1552 1552 1551 1551 1550 1550 1549 1549 1549 1549 1549 1548 1548 1548 1548 1549 1549 1550 1550
1545 1546 1547 1548 1548 1549 1550 1550 1551 1551 1551 1552 1552 1552 1553 1553 1552 1552 1552 1551 1551 1551 1551 1551 1550 1550 1549 1548 1548 1547 1547 1547 1547 1546 1546 1546 1545 1546 1546 1546 1546 1546 1547
1543 1544 1545 1546 1546 1547 1548 1548 1549 1549 1549 1550 1550 1551 1551 1551 1551 1551 1550 1549 1549 1548 1548 1548 1548 1547 1547 1546 1546 1545 1544 1544 1544 1543 1543 1543 1543 1543 1543 1543 1543 1543 1543
1540 1542 1543 1543 1544 1545 1545 1546 1546 1546 1547 1548 1548 1548 1548 1548 1549 1548 1548 1548 1547 1546 1546 1546 1545 1545 1545 1544 1543 1542 1542 1541 1541 1540 1540 1539 1539 1539 1539 1539 1539 1539 1540
1537 1538 1540 1541 1541 1542 1542 1543 1543 1544 1544 1545 1545 1545 1546 1546 1546 1546 1546 1546 1546 1544 1543 1542 1543 1542 1542 1542 1541 1540 1539 1538 1538 1537 1537 1536 1536 1536 1536 1536 1536 1536 1536
1534 1535 1536 1537 1538 1539 1539 1539 1540 1540 1541 1542 1543 1543 1543 1543 1543 1543 1543 1543 1543 1542 1541 1540 1540 1540 1539 1539 1538 1537 1536 1535 1535 1534 1534 1534 1533 1533 1533 1532 1532 1532 1532
1530 1531 1533 1534 1534 1535 1536 1536 1536 1537 1538 1539 1539 1540 1540 1540 1540 1539 1539 1539 1539 1539 1537 1537 1537 1537 1536 1536 1535 1534 1533 1532 1531 1531 1530 1530 1530 1529 1529 1529 1529 1529 1528
1526 1528 1529 1529 1530 1531 1532 1532 1533 1534 1535 1535 1536 1536 1536 1537 1536 1536 1536 1536 1535 1535 1534 1533 1533 1533 1533 1532 1532 1531 1530 1529 1528 1527 1527 1527 1526 1526 1526 1525 1525 1525 1525
1522 1523 1524 1525 1526 1527 1528 1529 1530 1530 1531 1532 1532 1532 1533 1533 1532 1532 1532 1532 1531 1531 1530 1530 1529 1529 1528 1528 1527 1527 1526 1525 1524 1524 1523 1523 1523 1523 1522 1522 1522 1522 1522
1517 1519 1520 1521 1521 1523 1524 1525 1525 1526 1527 1527 1528 1528 1528 1528 1528 1528 1528 1528 1527 1527 1526 1526 1525 1525 1524 1524 1524 1523 1522 1521 1520 1520 1520 1519 1519 1519 1519 1519 1519 1518 1518
1512 1514 1515 1516 1517 1518 1519 1520 1521 1522 1522 1522 1523 1524 1524 1524 1524 1524 1524 1524 1523 1523 1522 1522 1521 1520 1520 1520 1519 1519 1518 1517 1517 1516 1516 1516 1515 1515 1515 1515 1515 1515 1515
1507 1508 1509 1510 1511 1513 1514 1515 1517 1517 1517 1517 1518 1519 1519 1519 1519 1520 1519 1519 1519 1519 1518 1518 1517 1516 1515 1515 1515 1515 1514 1513 1512 1513 1512 1512 1512 1512 1512 1512 1512 1512 1512
1502 1502 1504 1505 1506 1507 1509 1510 1511 1512 1512 1513 1513 1514 1514 1514 1515 1515 1515 1515 1515 1514 1514 1514 1512 1512 1511 1511 1511 1510 1510 1510 1509 1509 1509 1508 1509 1509 1509 1509 1509 1509 1508
1498 1498 1499 1500 1502 1503 1504 1506 1506 1507 1507 1508 1508 1509 1510 1510 1511 1511 1511 1511 1510 1510 1510 1509 1509 1508 1508 1507 1507 1507 1507 1507 1506 1507 1506 1506 1506 1506 1506 1506 1506 1506 1505
1493 1494 1495 1496 1497 1498 1500 1501 1502 1501 1502 1503 1504 1505 1506 1506 1506 1506 1507 1507 1506 1506 1506 1505 1505 1504 1504 1504 1504 1504 1504 1504 1503 1503 1503 1503 1503 1503 1503 1503 1503 1503 1502
1489 1490 1491 1492 1493 1494 1494 1496 1497 1497 1498 1498 1499 1500 1501 1502 1502 1502 1503 1503 1503 1503 1502 1502 1502 1501 1501 1501 1501 1501 1501 1501 1501 1501 1501 1501 1501 1501 1501 1501 1501 1500 1500